When you browse on this site, cookies collect data to enhance your experience and personalize the content and advertising you see.
Visit our Privacy Policy to learn more. By continuing to use the site, you agree to this use of cookies and data.
  • In Hungary
  • List of Countries
  • For 7 days
  • Water Temperature
  • Satellite Maps
  • Weather Map
  • News
  • Weather Widgets
  • user-avatar
    Login

    Hourly Weather Soma Bey

    Today, 22 January, Tuesday

    Time Temperature Precipitation Wind Pressure Humidity
    00:00 +19°C° 0 mm 1 mps 751 mmHg 37%
    01:00 +19°C° 0 mm 1 mps 751 mmHg 35%
    02:00 +18°C° 0 mm 1 mps 750 mmHg 38%
    03:00 +18°C° 0 mm 1 mps 750 mmHg 37%
    04:00 +16°C° 0 mm 1 mps 750 mmHg 35%
    05:00 +16°C° 0 mm 1 mps 750 mmHg 34%
    06:00 +19°C° 0 mm 1 mps 751 mmHg 29%
    07:00 +20°C° 0 mm 1 mps 751 mmHg 24%
    08:00 +23°C° 0 mm 1 mps 751 mmHg 19%
    09:00 +25°C° 0 mm 1 mps 751 mmHg 17%
    10:00 +26°C° 0 mm 1 mps 751 mmHg 15%
    11:00 +27°C° 0 mm 1 mps 751 mmHg 13%
    12:00 +27°C° 0 mm 2 mps 751 mmHg 15%
    13:00 +28°C° 0 mm 3 mps 750 mmHg 17%
    14:00 +27°C° 0 mm 3 mps 750 mmHg 21%
    15:00 +26°C° 0 mm 3 mps 750 mmHg 24%
    16:00 +25°C° 0 mm 3 mps 750 mmHg 27%
    17:00 +24°C° 0 mm 2 mps 750 mmHg 30%
    18:00 +23°C° 0 mm 2 mps 750 mmHg 34%
    19:00 +20°C° 0 mm 2 mps 750 mmHg 39%
    20:00 +20°C° 0 mm 1 mps 750 mmHg 43%
    21:00 +19°C° 0 mm 1 mps 750 mmHg 44%
    22:00 +18°C° 0 mm 1 mps 750 mmHg 46%
    23:00 +18°C° 0 mm 1 mps 750 mmHg 48%

    Tomorrow, 23 January, Wednesday

    Time Temperature Precipitation Wind Pressure Humidity
    00:00 +17°C° 0 mm 2 mps 750 mmHg 48%
    01:00 +16°C° 0 mm 2 mps 750 mmHg 48%
    02:00 +16°C° 0 mm 2 mps 750 mmHg 49%
    03:00 +16°C° 0 mm 2 mps 750 mmHg 50%
    04:00 +15°C° 0 mm 2 mps 750 mmHg 51%
    05:00 +15°C° 0 mm 2 mps 750 mmHg 51%
    06:00 +16°C° 0 mm 2 mps 750 mmHg 47%
    07:00 +18°C° 0 mm 2 mps 750 mmHg 43%
    08:00 +19°C° 0 mm 2 mps 750 mmHg 39%
    09:00 +21°C° 0 mm 2 mps 750 mmHg 36%
    10:00 +23°C° 0 mm 2 mps 750 mmHg 32%
    11:00 +24°C° 0 mm 2 mps 750 mmHg 29%
    12:00 +25°C° 0 mm 2 mps 750 mmHg 28%
    13:00 +26°C° 0 mm 3 mps 749 mmHg 27%
    14:00 +26°C° 0 mm 3 mps 749 mmHg 26%
    15:00 +25°C° 0 mm 3 mps 748 mmHg 29%
    16:00 +24°C° 0 mm 3 mps 748 mmHg 33%
    17:00 +24°C° 0 mm 2 mps 748 mmHg 37%
    18:00 +21°C° 0 mm 2 mps 749 mmHg 45%
    19:00 +20°C° 0 mm 2 mps 749 mmHg 53%
    20:00 +18°C° 0 mm 2 mps 749 mmHg 61%
    21:00 +18°C° 0 mm 2 mps 749 mmHg 64%
    22:00 +18°C° 0 mm 2 mps 749 mmHg 66%
    23:00 +17°C° 0 mm 2 mps 749 mmHg 69%

    Day after tomorrow, 24 January, Thursday

    Time Temperature Precipitation Wind Pressure Humidity
    00:00 +17°C° 0 mm 2 mps 749 mmHg 68%
    01:00 +17°C° 0 mm 2 mps 749 mmHg 67%
    02:00 +17°C° 0 mm 2 mps 749 mmHg 67%
    03:00 +16°C° 0 mm 2 mps 748 mmHg 66%
    04:00 +16°C° 0 mm 2 mps 748 mmHg 65%
    05:00 +16°C° 0 mm 2 mps 748 mmHg 64%
    06:00 +18°C° 0 mm 2 mps 748 mmHg 59%
    07:00 +19°C° 0 mm 2 mps 748 mmHg 55%
    08:00 +21°C° 0 mm 2 mps 749 mmHg 51%
    09:00 +22°C° 0 mm 3 mps 749 mmHg 46%
    10:00 +25°C° 0 mm 3 mps 749 mmHg 41%
    11:00 +27°C° 0 mm 4 mps 749 mmHg 36%
    12:00 +28°C° 0 mm 4 mps 748 mmHg 33%
    13:00 +29°C° 0 mm 5 mps 747 mmHg 30%
    14:00 +30°C° 0 mm 6 mps 747 mmHg 27%
    15:00 +29°C° 0 mm 5 mps 747 mmHg 29%
    16:00 +28°C° 0 mm 5 mps 747 mmHg 31%
    17:00 +27°C° 0 mm 4 mps 747 mmHg 34%
    18:00 +26°C° 0 mm 4 mps 747 mmHg 35%
    19:00 +25°C° 0 mm 3 mps 748 mmHg 36%
    20:00 +22°C° 0 mm 3 mps 748 mmHg 37%
    21:00 +22°C° 0 mm 3 mps 748 mmHg 29%
    22:00 +21°C° 0 mm 2 mps 748 mmHg 21%
    23:00 +21°C° 0 mm 2 mps 749 mmHg 13%

    25 January, Friday

    Time Temperature Precipitation Wind Pressure Humidity
    00:00 +20°C° 0 mm 2 mps 748 mmHg 13%
    01:00 +20°C° 0 mm 2 mps 748 mmHg 12%
    02:00 +19°C° 0 mm 2 mps 748 mmHg 12%
    03:00 +19°C° 0 mm 2 mps 748 mmHg 22%
    04:00 +19°C° 0 mm 2 mps 748 mmHg 32%
    05:00 +19°C° 0 mm 2 mps 748 mmHg 43%
    06:00 +20°C° 0 mm 2 mps 748 mmHg 45%
    07:00 +22°C° 0 mm 1 mps 749 mmHg 48%
    08:00 +23°C° 0 mm 1 mps 749 mmHg 50%
    09:00 +24°C° 0 mm 1 mps 749 mmHg 45%
    10:00 +26°C° 0 mm 1 mps 749 mmHg 39%
    11:00 +27°C° 0 mm 2 mps 749 mmHg 34%
    12:00 +28°C° 0 mm 2 mps 748 mmHg 34%
    13:00 +28°C° 0 mm 3 mps 748 mmHg 34%
    14:00 +29°C° 0 mm 3 mps 747 mmHg 34%
    15:00 +28°C° 0 mm 3 mps 747 mmHg 40%
    16:00 +27°C° 0 mm 2 mps 747 mmHg 46%
    17:00 +26°C° 0 mm 2 mps 747 mmHg 53%
    18:00 +25°C° 0 mm 2 mps 747 mmHg 61%
    19:00 +24°C° 0 mm 1 mps 747 mmHg 70%
    20:00 +23°C° 0 mm 1 mps 747 mmHg 79%
    21:00 +23°C° 0 mm 1 mps 747 mmHg 82%
    22:00 +20°C° 0 mm 0 mps 747 mmHg 85%
    23:00 +20°C° 0 mm 0 mps 747 mmHg 87%

    26 January, Saturday

    Time Temperature Precipitation Wind Pressure Humidity
    00:00 +20°C° 0 mm 0 mps 747 mmHg 88%
    01:00 +20°C° 0 mm 0 mps 747 mmHg 89%
    02:00 +19°C° 0 mm 0 mps 746 mmHg 90%
    03:00 +19°C° 0 mm 0 mps 746 mmHg 90%
    04:00 +19°C° 0 mm 0 mps 746 mmHg 90%
    05:00 +18°C° 0 mm 0 mps 746 mmHg 90%
    06:00 +20°C° 0 mm 0 mps 747 mmHg 81%
    07:00 +21°C° 0 mm 0 mps 747 mmHg 73%
    08:00 +22°C° 0 mm 0 mps 748 mmHg 65%
    09:00 +26°C° 0 mm 1 mps 748 mmHg 54%
    10:00 +28°C° 0 mm 1 mps 748 mmHg 43%
    11:00 +29°C° 0 mm 1 mps 748 mmHg 32%
    12:00 +29°C° 0 mm 2 mps 748 mmHg 32%
    13:00 +30°C° 0 mm 2 mps 747 mmHg 33%
    14:00 +30°C° 0 mm 3 mps 747 mmHg 33%
    15:00 +29°C° 0 mm 3 mps 747 mmHg 39%
    16:00 +28°C° 0 mm 2 mps 747 mmHg 45%
    17:00 +27°C° 0 mm 2 mps 747 mmHg 52%
    18:00 +25°C° 0 mm 1 mps 747 mmHg 58%
    19:00 +24°C° 0 mm 1 mps 747 mmHg 65%
    20:00 +21°C° 0 mm 0 mps 748 mmHg 72%
    21:00 +21°C° 0 mm 0 mps 748 mmHg 73%
    22:00 +21°C° 0 mm 0 mps 748 mmHg 74%
    23:00 +20°C° 0 mm 0 mps 748 mmHg 75%

    27 January, Sunday

    Time Temperature Precipitation Wind Pressure Humidity
    00:00 +22°C° 0 mm 1 mps 748 mmHg 73%
    01:00 +22°C° 0 mm 1 mps 747 mmHg 72%
    02:00 +21°C° 0 mm 2 mps 747 mmHg 71%
    03:00 +21°C° 0 mm 2 mps 747 mmHg 68%
    04:00 +21°C° 0 mm 2 mps 747 mmHg 64%
    05:00 +21°C° 0 mm 3 mps 747 mmHg 61%
    06:00 +23°C° 0 mm 2 mps 747 mmHg 56%
    07:00 +23°C° 0 mm 2 mps 748 mmHg 50%
    08:00 +24°C° 0 mm 2 mps 748 mmHg 45%
    09:00 +25°C° 0 mm 3 mps 748 mmHg 39%
    10:00 +26°C° 0 mm 3 mps 748 mmHg 33%
    11:00 +27°C° 0 mm 3 mps 748 mmHg 27%
    12:00 +27°C° 0 mm 4 mps 747 mmHg 25%
    13:00 +28°C° 0 mm 4 mps 746 mmHg 23%
    14:00 +28°C° 0 mm 4 mps 745 mmHg 21%
    15:00 +27°C° 0 mm 3 mps 745 mmHg 22%
    16:00 +27°C° 0 mm 2 mps 745 mmHg 22%
    17:00 +26°C° 0 mm 2 mps 745 mmHg 23%
    18:00 +25°C° 0 mm 1 mps 745 mmHg 24%
    19:00 +25°C° 0 mm 1 mps 745 mmHg 26%
    20:00 +22°C° 0 mm 0 mps 746 mmHg 27%
    21:00 +22°C° 0 mm 0 mps 746 mmHg 27%
    22:00 +22°C° 0 mm 0 mps 746 mmHg 27%
    23:00 +22°C° 0 mm 0 mps 746 mmHg 27%
    Show more